This is the latest recevied weather packets stored in our database for station/object WA9NNN-10. If no packets are shown the sender has not sent any weather packets the latest 10 day(s).
| Time | Temp. | Humidity | Pressure | Rain* | Wind** | Luminosity | Snow |
|---|---|---|---|---|---|---|---|
| 1777742797 | 12.78° C | 43% | 1019 hPa | 0 mm | - | - | - |
| 1777742497 | 12.78° C | 42% | 1019.1 hPa | 0 mm | - | - | - |
| 1777742197 | 12.22° C | 38% | 1019.1 hPa | 0 mm | - | - | - |
| 1777741898 | 11.11° C | 39% | 1019.1 hPa | 0 mm | - | - | - |
| 1777741597 | 11.11° C | 38% | 1019.3 hPa | 0 mm | - | - | - |
| 1777741297 | 11.67° C | 38% | 1019.3 hPa | 0 mm | - | - | - |
| 1777740996 | 12.22° C | 38% | 1019.3 hPa | 0 mm | - | - | - |
| 1777740698 | 11.67° C | 39% | 1019.3 hPa | 0 mm | - | - | - |
| 1777740396 | 11.67° C | 37% | 1019.3 hPa | 0 mm | - | - | - |
| 1777740097 | 12.22° C | 38% | 1019.3 hPa | 0 mm | - | - | - |
| 1777739797 | 12.22° C | 38% | 1019.4 hPa | 0 mm | - | - | - |
| 1777739497 | 11.67° C | 37% | 1019.5 hPa | 0 mm | - | - | - |
| 1777739196 | 11.67° C | 38% | 1019.6 hPa | 0 mm | - | - | - |
| 1777738897 | 11.67° C | 40% | 1019.7 hPa | 0 mm | - | - | - |
| 1777738597 | 11.11° C | 39% | 1019.6 hPa | 0 mm | - | - | - |
| 1777738297 | 11.11° C | 40% | 1019.7 hPa | 0 mm | - | - | - |
| 1777737997 | 10.56° C | 41% | 1019.7 hPa | 0 mm | - | - | - |
| 1777737697 | 10.56° C | 41% | 1019.7 hPa | 0 mm | - | - | - |
| 1777737397 | 10.56° C | 41% | 1019.8 hPa | 0 mm | - | - | - |
| 1777737097 | 11.11° C | 42% | 1019.7 hPa | 0 mm | - | - | - |
| 1777736796 | 11.11° C | 40% | 1019.8 hPa | 0 mm | - | - | - |
| 1777736497 | 11.67° C | 40% | 1019.7 hPa | 0 mm | - | - | - |
| 1777736196 | 11.67° C | 41% | 1019.7 hPa | 0 mm | - | - | - |
| 1777735897 | 11.67° C | 41% | 1019.8 hPa | 0 mm | - | - | - |
| 1777735596 | 11.67° C | 42% | 1019.7 hPa | 0 mm | - | - | - |
* Rain latest hour (hover to see other rain measurements)
** Current wind speed in m/s (hover to see current wind gust speed)